Theta_e
360 358 358 360 358 358 359 357 359 360 359 358 358 357 360 360 357 357 357 356 355 355 355 355 356 355 354 355 355 355 354 353 351 350 350 351 350 349 347 345 345 347 347 345 345 346 346 345 345 345 345 346 345 346 345 345 344 344 343 343 343 343 343 342 342 342 342 342 343 342 342 342 342 343 343 342 341 342 342 342 346 348 348 349 350
361 360 360 359 360 359 359 359 360 360 359 359 360 359 359 358 356 356 356 356 354 353 354 353 354 354 354 355 354 353 352 348 347 346 346 347 344 343 344 345 344 343 344 345 345 346 345 346 346 346 347 348 347 347 347 346 346 345 344 343 343 343 343 342 342 342 342 343 342 341 342 342 342 342 342 344 344 344 343 341 341 343 346 348 348
363 361 360 359 359 359 360 360 360 360 360 359 359 359 358 357 356 356 355 355 354 353 353 353 352 354 354 352 351 350 349 346 346 345 346 345 344 343 345 346 345 344 347 348 348 348 348 347 347 348 349 348 348 347 347 347 346 346 345 344 343 343 343 343 343 343 343 342 342 343 344 344 343 343 342 342 343 344 345 345 344 344 346 347 347
362 360 361 359 359 360 359 359 361 360 360 359 359 358 358 358 356 357 356 354 354 354 353 353 353 353 351 350 349 348 346 344 345 343 342 345 345 345 346 347 347 346 346 346 347 347 347 347 348 348 348 348 347 347 347 347 346 346 346 345 343 343 343 343 344 344 343 342 343 344 344 343 346 345 342 341 340 341 344 346 346 345 344 344 345
361 360 361 359 358 358 358 359 360 360 360 359 359 358 357 357 357 357 356 355 355 355 355 355 354 351 349 347 347 345 342 341 341 339 339 341 341 340 340 343 345 343 340 342 344 344 343 344 345 345 346 346 346 345 346 346 344 344 345 345 344 344 344 343 344 343 343 344 343 344 343 345 348 345 341 342 341 341 341 341 343 343 342 342 343
360 360 359 359 358 358 359 358 360 360 360 360 359 359 358 358 357 357 356 355 356 358 356 354 352 350 349 346 344 342 340 340 340 340 338 337 337 336 336 338 340 340 340 341 343 342 342 343 343 343 344 343 344 343 343 344 342 341 341 342 343 344 344 343 342 341 342 343 343 343 343 343 343 342 342 344 342 340 340 340 342 342 341 342 342
358 359 357 359 358 358 358 358 360 360 360 360 359 359 358 358 357 357 357 356 356 357 355 353 352 350 348 344 341 340 339 340 341 339 337 336 337 337 337 338 338 338 339 341 342 342 342 342 341 341 341 341 342 341 341 342 340 339 339 340 342 342 343 343 342 342 342 343 342 341 341 340 340 339 342 343 343 341 340 340 341 340 340 341 342
357 359 358 357 357 358 358 357 358 360 360 359 359 359 359 358 358 358 358 357 357 356 354 353 350 346 343 340 339 339 339 341 339 338 338 338 339 338 337 339 338 339 339 340 342 342 340 340 339 340 340 340 339 338 339 339 338 339 341 341 342 342 342 342 343 343 342 341 340 340 340 340 340 339 340 341 342 343 341 340 340 340 339 340 342
355 358 357 353 355 357 356 356 358 358 360 359 359 359 358 359 359 358 358 357 357 355 350 347 344 342 341 339 339 340 339 339 338 337 339 339 339 338 338 339 339 339 338 338 340 340 339 339 339 338 339 338 337 338 337 337 337 338 340 341 341 340 340 341 342 341 341 340 339 339 340 340 339 340 339 340 340 341 341 340 339 339 339 339 340
353 355 355 351 353 355 355 356 356 357 358 357 359 359 358 359 359 358 359 358 354 348 343 341 342 340 339 338 338 341 340 339 337 335 336 338 338 338 338 340 339 338 338 339 338 338 339 340 339 338 338 337 337 337 336 336 337 337 338 338 338 338 338 339 339 339 340 340 338 339 340 339 339 339 338 339 339 340 340 340 339 338 339 339 339
351 352 352 351 352 354 354 355 355 356 357 357 359 360 358 359 359 358 358 354 347 342 340 340 340 338 339 339 339 340 338 337 336 336 337 337 338 338 339 339 338 337 337 337 337 338 339 339 338 337 337 337 337 337 336 337 337 336 337 337 337 337 337 337 337 338 338 338 337 338 338 338 338 338 337 339 339 339 340 339 338 338 338 339 338
350 350 352 352 353 354 355 354 354 355 357 359 360 360 359 358 357 355 353 349 344 342 343 341 339 338 341 340 338 337 337 335 336 337 338 338 339 339 339 338 337 336 337 336 337 339 339 338 338 338 338 338 338 337 336 337 336 336 336 336 336 336 336 336 336 337 337 338 337 336 336 335 336 336 336 337 338 339 339 338 337 337 338 337 337
349 350 351 352 353 354 354 353 353 356 358 359 360 359 359 358 356 353 350 346 343 343 345 343 339 339 340 338 336 337 336 334 336 337 337 338 338 338 338 337 337 336 337 338 338 338 338 338 338 338 338 337 337 337 337 336 336 336 335 335 335 335 336 336 335 335 336 336 337 335 334 334 334 334 334 334 336 337 337 337 336 337 337 336 335
348 350 351 352 353 353 354 352 352 357 359 359 360 360 359 357 354 351 348 344 342 343 344 343 341 340 339 337 336 336 336 336 336 336 337 339 338 337 337 336 336 336 338 339 339 337 337 338 338 338 338 337 337 337 336 336 335 335 335 335 334 334 335 335 335 334 334 334 335 334 334 334 334 333 332 333 335 336 336 336 336 336 336 335 335
348 349 352 351 351 351 353 352 353 357 359 360 361 359 358 355 352 349 347 344 343 345 345 343 342 341 339 338 337 337 337 337 336 337 338 338 337 337 336 336 336 336 338 338 337 337 337 338 337 337 337 337 337 336 336 335 335 334 334 334 334 334 335 335 334 333 333 334 334 334 334 334 333 332 332 332 333 334 335 335 336 337 336 334 333
347 349 353 352 350 349 352 351 353 357 358 360 361 359 357 355 351 348 346 345 344 344 344 342 340 340 341 339 337 338 338 338 337 337 337 335 335 337 336 335 336 336 337 337 337 337 337 336 336 336 336 336 336 336 335 335 335 334 334 334 334 334 335 334 333 333 333 334 333 334 334 333 332 331 331 332 332 333 333 333 333 335 336 334 333
347 350 353 354 351 348 351 351 353 357 357 359 360 359 358 354 350 349 347 346 344 343 343 342 340 340 341 339 337 339 340 338 336 336 337 337 337 336 334 334 336 336 337 336 336 336 335 335 335 335 335 335 335 335 334 335 334 334 334 333 334 335 335 335 333 334 335 334 334 333 333 332 331 331 330 331 331 331 330 330 330 332 333 334 334
348 350 353 354 351 347 351 351 352 355 356 358 360 358 357 353 351 349 346 345 345 344 342 340 339 339 338 339 338 339 340 338 337 337 338 338 336 334 334 335 336 336 334 334 334 335 334 335 335 335 335 335 335 335 335 334 334 334 334 333 334 335 336 335 334 334 335 334 334 333 331 332 331 329 329 329 328 325 325 326 327 328 330 331 333
349 351 354 355 351 348 351 352 352 355 355 357 358 357 356 353 351 348 346 345 344 344 342 338 337 338 339 339 339 339 339 337 337 338 337 336 335 334 334 336 336 334 333 333 335 334 333 333 334 334 334 334 335 335 335 334 334 334 334 334 334 335 336 336 335 335 335 335 334 332 331 331 330 329 328 327 323 321 322 322 323 324 325 327 329
350 350 355 355 351 348 351 353 353 355 355 357 357 357 355 352 350 349 346 346 345 343 340 337 337 338 339 339 340 339 338 337 336 336 336 336 334 333 334 335 334 333 333 333 333 333 332 333 333 333 333 333 334 334 334 334 335 335 335 335 335 336 335 336 336 335 335 336 334 332 330 330 330 329 328 324 320 320 320 320 321 322 323 324 326
352 351 354 354 351 348 351 353 353 354 355 356 356 355 354 352 350 349 347 346 345 343 339 338 338 338 338 340 340 340 339 337 336 336 336 335 334 334 334 334 333 333 333 333 332 333 333 333 333 333 333 332 333 334 334 334 335 335 335 335 334 335 335 336 335 334 335 336 334 332 330 330 329 330 328 324 319 319 320 320 321 322 322 323 325
354 352 353 354 353 350 351 353 353 354 356 356 356 355 352 351 350 349 348 347 344 343 340 339 339 339 339 340 340 339 338 337 336 336 336 336 334 334 333 333 333 332 333 333 333 333 333 333 333 333 332 332 332 332 333 334 334 334 335 334 333 333 334 335 335 334 335 335 333 331 330 329 329 329 328 323 319 319 320 321 321 321 323 323 324
353 351 351 355 353 351 352 353 354 354 355 355 355 354 351 350 349 349 349 346 344 343 340 341 341 340 339 340 338 338 337 336 336 336 336 336 335 334 333 333 333 332 333 333 333 334 333 333 333 332 332 332 331 332 333 334 334 334 334 334 332 332 332 333 334 334 335 334 333 331 330 329 329 329 328 324 319 320 321 322 321 321 322 323 323
354 350 350 351 352 353 353 353 354 354 355 355 354 352 351 349 348 348 348 346 344 343 342 342 341 340 339 339 338 338 337 337 337 337 337 337 336 335 335 334 333 333 332 332 332 333 332 332 332 331 331 331 331 332 332 334 334 333 333 332 332 332 332 332 332 334 334 333 332 331 330 329 329 328 328 325 321 321 322 322 322 322 322 323 323
355 353 354 351 354 357 354 352 355 355 354 355 353 352 351 349 348 346 346 346 345 344 344 342 341 340 340 340 339 338 338 338 338 338 338 337 336 335 334 332 332 333 332 332 332 331 331 330 330 331 331 332 333 331 331 332 334 333 332 331 331 331 331 331 330 331 333 333 332 331 330 329 329 328 328 326 322 321 322 322 322 322 323 323 323
359 357 356 354 356 360 356 352 354 356 355 354 352 351 351 349 347 345 345 345 345 345 344 342 340 340 339 339 339 338 338 338 338 338 337 337 336 335 333 331 331 332 332 332 331 331 330 330 330 330 332 331 331 330 329 330 331 332 331 331 332 333 332 331 330 330 332 333 332 331 330 329 329 328 328 327 323 319 320 321 321 322 324 324 324
360 358 357 356 358 362 359 354 353 355 355 354 352 352 351 349 347 345 345 345 344 345 344 342 340 339 339 338 338 337 337 337 337 337 337 336 336 335 333 332 332 333 332 331 332 332 331 331 331 331 330 330 329 329 329 329 330 331 331 333 334 334 333 331 330 331 331 332 332 331 330 329 328 328 328 328 325 321 319 320 321 322 324 325 325
364 366 365 358 357 361 361 355 353 353 353 352 351 350 351 348 345 344 345 344 345 345 344 342 341 340 338 338 337 337 337 337 337 338 337 337 336 334 333 332 333 332 331 332 333 333 332 332 331 330 329 330 329 329 330 330 331 332 333 335 335 334 333 331 330 329 329 330 331 331 330 329 329 328 328 328 327 325 322 322 323 323 324 326 326
370 372 372 363 358 361 362 356 354 354 353 351 350 349 350 348 344 342 343 344 344 344 344 342 342 341 340 339 338 337 337 338 338 338 337 337 335 334 333 332 332 332 332 333 333 333 333 332 330 330 330 330 329 329 330 330 331 331 333 334 334 333 333 331 328 325 326 328 329 329 329 329 328 329 328 328 328 327 327 326 325 325 325 326 327
375 375 372 366 362 360 360 358 355 354 353 352 350 349 349 347 344 342 342 343 344 344 343 343 342 341 341 340 339 338 338 338 338 337 337 336 335 334 333 333 333 333 333 334 334 334 333 331 331 330 330 329 328 329 330 330 330 331 331 332 332 332 333 331 328 327 327 327 328 329 328 328 328 328 328 328 328 328 328 328 327 327 327 327 327
376 377 371 367 365 361 361 360 356 354 354 352 350 350 349 347 344 342 342 342 343 344 343 343 341 338 339 341 340 340 339 339 339 337 336 336 335 334 334 333 334 334 334 334 335 335 333 332 331 330 329 328 328 329 329 330 330 329 329 330 331 331 332 331 331 331 330 329 329 329 328 327 328 329 328 328 328 328 328 328 328 328 328 328 327
373 379 373 367 366 365 363 359 356 354 354 352 352 350 346 343 342 342 342 340 340 341 340 338 335 334 337 339 339 338 339 339 338 337 336 335 334 334 334 334 334 334 334 335 335 335 334 333 331 329 329 328 329 329 329 329 329 328 328 328 328 330 331 331 331 331 330 330 330 329 328 328 328 328 328 328 327 327 327 328 328 329 328 328 326
365 377 378 370 366 364 361 359 355 354 354 353 351 347 342 341 341 341 341 340 339 340 338 337 335 335 338 338 336 336 335 336 336 336 336 335 334 334 334 334 334 334 335 335 335 335 334 332 329 328 328 328 328 328 328 328 328 328 328 327 326 327 328 329 329 330 329 330 331 329 328 327 327 327 326 327 327 326 327 327 328 329 329 329 326
361 369 374 371 366 360 356 356 357 355 353 352 349 345 342 341 340 340 340 340 340 339 339 338 337 336 338 338 336 336 335 335 336 336 335 336 335 335 336 335 335 335 335 335 336 335 333 332 330 329 328 328 328 328 329 329 329 330 329 327 326 326 326 326 327 327 328 331 332 330 329 327 326 325 326 326 326 326 327 327 328 329 329 327 324
361 358 363 373 373 360 354 357 358 353 350 348 346 343 341 340 339 340 340 339 338 338 339 341 340 338 340 341 339 337 336 336 336 336 337 336 336 335 335 335 335 335 336 336 336 335 333 331 329 329 329 329 329 329 329 329 329 329 328 327 326 326 326 325 325 325 327 330 332 330 329 328 326 324 325 325 326 326 327 328 329 329 329 327 323
359 356 356 363 366 362 358 356 352 346 345 344 342 340 339 339 338 338 338 338 338 337 338 339 341 342 343 342 339 338 338 338 337 337 336 336 335 335 334 335 335 335 336 337 336 335 334 331 329 329 329 329 328 330 330 329 329 329 327 327 327 326 326 325 324 325 328 331 332 331 330 328 325 324 324 325 326 327 328 329 329 328 327 324 322
357 354 350 352 357 360 356 350 345 344 343 340 338 338 338 338 337 337 337 337 337 337 337 338 341 344 344 342 340 339 338 338 338 336 335 335 335 334 334 334 336 336 337 336 334 334 333 331 330 329 329 329 328 329 328 328 328 328 327 327 327 326 326 325 324 326 328 330 331 331 331 328 326 325 325 325 327 328 328 327 326 325 323 322 322
351 350 352 355 357 354 348 343 342 341 339 338 337 337 337 337 337 337 336 336 337 336 337 337 339 344 345 343 341 340 338 338 337 336 335 334 334 334 335 336 335 335 335 332 332 332 333 331 330 330 330 329 328 328 327 326 326 327 327 327 325 324 324 324 326 328 329 330 331 331 330 328 327 325 325 326 328 327 325 323 322 322 322 322 322
347 352 352 349 348 346 345 343 339 336 335 336 336 337 338 337 337 336 336 336 336 337 337 337 338 342 345 343 342 341 340 339 338 336 335 334 334 334 334 334 334 333 331 331 332 332 331 330 329 329 329 328 328 328 327 326 326 327 327 326 324 324 325 327 329 330 331 331 330 329 329 328 327 326 326 328 327 323 322 322 322 322 322 322 321
349 350 348 347 347 346 344 341 338 335 335 335 336 336 337 336 335 335 336 337 337 337 337 337 339 343 344 343 342 342 342 339 337 336 334 334 334 334 334 334 333 331 330 330 331 331 331 330 330 330 330 329 329 328 326 327 328 328 328 325 324 326 328 329 329 328 328 327 326 327 328 327 327 327 326 326 324 321 323 323 321 320 320 319 320
349 345 345 345 344 344 343 341 338 335 333 333 335 335 335 335 334 335 336 337 337 338 337 339 342 344 343 342 342 343 341 339 336 335 334 334 335 334 334 332 330 330 331 331 331 331 331 331 331 331 331 330 328 326 324 327 329 328 327 326 325 326 327 327 326 325 324 324 324 325 327 328 327 325 324 323 322 323 324 322 319 318 318 318 319
346 344 343 341 340 341 341 339 337 335 333 334 336 336 335 335 334 334 336 336 337 338 339 341 342 341 340 341 341 341 340 338 336 335 335 335 334 332 331 331 330 331 331 331 332 332 332 332 332 330 329 328 327 324 323 326 328 328 327 326 326 325 324 324 324 323 324 324 324 325 326 327 326 323 322 323 323 324 323 320 317 318 318 318 319
344 343 342 340 340 339 338 338 337 336 336 335 335 336 335 336 337 338 338 338 339 339 341 341 341 340 340 341 340 340 338 336 336 336 335 334 332 331 331 331 330 327 327 331 333 333 332 332 331 329 327 325 324 324 324 325 327 327 327 326 325 323 322 322 322 323 324 325 325 325 326 326 324 323 324 326 326 325 322 318 317 318 318 318 319
344 343 342 340 338 338 337 337 337 336 336 335 335 336 337 339 342 342 342 342 342 341 343 343 342 342 342 342 341 339 337 336 335 334 334 332 332 331 331 329 326 326 328 331 333 332 332 331 330 327 325 323 322 324 325 325 325 326 326 325 323 321 321 321 322 322 324 324 324 324 324 324 324 325 326 326 326 323 320 317 316 316 316 318 318
346 343 342 340 339 338 337 336 336 335 334 333 334 339 343 344 344 341 340 341 339 337 338 338 338 340 340 340 340 337 336 335 333 332 332 331 330 329 328 326 326 328 330 331 331 331 332 331 329 328 326 324 324 325 325 324 325 325 325 323 322 320 321 321 321 321 322 322 321 322 323 324 325 325 324 322 322 320 318 316 316 315 315 316 316
347 345 344 342 340 340 339 337 336 336 337 338 339 343 344 342 340 339 338 337 336 334 333 334 335 336 337 338 338 336 334 333 331 331 330 329 328 327 326 327 329 331 331 331 332 333 332 330 329 329 327 326 326 325 324 324 324 323 322 321 320 320 321 321 321 321 321 321 322 323 324 324 323 321 320 319 318 317 316 315 315 314 314 313 313
342 345 346 345 344 344 343 342 340 339 339 338 338 338 336 335 336 336 336 336 335 333 332 332 334 335 336 336 335 333 332 331 330 329 328 327 326 326 326 329 332 332 331 330 330 331 330 329 328 328 327 327 328 326 323 322 322 321 320 320 319 320 320 321 321 321 321 322 322 323 322 320 319 318 317 316 316 315 315 314 313 313 313 312 311
341 343 345 346 346 346 344 342 340 338 335 334 334 332 331 334 337 336 335 337 336 335 335 335 335 335 336 334 333 333 333 331 328 327 327 327 328 328 329 331 331 330 328 326 326 327 326 325 326 327 326 327 326 323 321 321 321 319 319 319 319 319 319 319 319 320 321 321 321 320 319 318 317 316 315 314 314 313 313 313 312 312 312 311 310
342 342 344 344 345 345 343 341 339 337 336 335 334 332 332 335 338 336 335 338 339 339 339 336 335 335 334 333 333 334 332 328 327 328 329 329 328 329 330 329 327 325 324 323 324 324 323 322 324 325 324 325 323 321 319 319 318 317 318 319 319 317 317 318 318 319 320 319 318 317 316 316 316 314 313 313 313 312 312 311 310 311 310 309 308
341 341 343 342 342 343 344 342 340 339 337 335 334 334 335 336 336 334 337 340 340 340 338 337 337 336 334 333 332 332 330 328 328 330 329 326 326 326 326 325 324 323 323 322 322 322 321 321 322 322 321 321 320 318 317 317 317 318 318 318 316 315 316 317 318 319 319 317 316 315 314 313 314 312 312 312 311 310 310 309 309 309 308 307 307
340 340 341 341 342 342 342 340 338 336 334 332 330 330 333 335 335 335 338 340 340 339 338 337 337 337 335 333 331 330 329 330 331 330 327 325 324 323 322 322 322 321 321 321 321 320 320 320 320 320 319 318 317 316 316 316 317 318 318 316 315 315 315 316 317 318 317 315 314 313 311 311 311 311 310 310 309 308 308 307 307 307 307 306 306
Wind_Speed
11 17 18 17 21 20 19 19 18 18 19 19 19 19 18 16 16 17 16 15 14 14 15 15 14 14 13 12 11 10 9 9 9 10 9 9 8 7 7 6 6 6 7 7 7 8 9 9 9 9 9 10 11 11 10 10 10 11 10 10 12 14 16 15 12 11 12 13 14 15 18 19 16 16 16 17 20 22 24 24 24 23 23 23 24
10 13 16 18 19 20 21 20 20 20 21 21 20 20 19 17 18 18 17 18 16 15 16 16 15 14 13 12 10 9 8 7 7 8 6 5 5 4 6 5 3 3 3 5 6 7 9 10 11 11 11 11 12 12 12 12 12 11 10 10 11 13 15 15 13 11 8 8 9 10 14 15 12 11 14 15 17 19 21 23 24 24 24 24 25
9 9 13 17 18 20 22 22 22 22 23 23 22 21 20 19 20 19 17 19 17 16 17 16 13 12 11 9 7 8 8 6 6 5 4 4 3 4 6 4 1 2 3 4 6 7 9 10 11 12 11 11 12 13 13 14 13 12 11 11 11 12 14 14 13 10 8 9 8 5 5 7 8 8 10 15 17 17 18 19 20 21 21 23 25
10 9 11 15 17 20 22 23 24 24 24 24 23 22 21 20 20 21 19 18 18 17 17 15 12 11 9 8 6 7 6 5 5 4 3 3 3 2 2 2 2 3 2 3 3 4 4 4 6 7 7 8 9 9 11 12 11 10 11 11 10 11 13 12 11 9 10 10 5 2 2 3 4 5 11 18 17 12 13 15 16 16 17 18 21
12 11 10 13 16 19 22 23 24 25 25 25 25 25 24 23 22 21 20 19 18 17 15 13 12 10 9 8 6 6 4 4 4 4 4 4 4 4 4 2 1 1 3 3 3 4 5 5 5 4 5 5 5 7 8 8 10 10 9 9 8 9 10 10 12 11 11 10 6 4 3 1 2 4 10 13 13 13 15 15 14 13 14 16 19
12 12 12 14 16 19 22 22 23 25 26 26 27 26 25 24 23 21 21 21 18 16 14 14 14 12 11 9 7 6 5 3 3 2 1 2 3 3 2 1 1 3 3 3 4 5 5 4 4 4 4 5 5 6 7 7 10 10 9 8 6 6 7 8 11 11 10 9 9 9 8 7 6 6 5 4 11 18 15 12 14 15 16 18 20
12 13 12 14 16 18 20 22 24 25 27 27 27 26 26 25 24 22 22 21 19 16 16 16 16 14 13 10 7 6 5 5 4 2 5 6 6 5 3 2 3 5 3 3 4 2 3 4 4 5 5 6 5 7 8 8 10 11 9 8 7 6 6 7 9 10 10 10 10 10 12 12 11 9 5 3 7 11 11 13 16 16 18 19 20
13 13 13 14 18 20 21 23 26 27 28 29 28 27 26 25 25 24 22 21 19 18 18 18 18 15 12 9 8 7 6 6 5 1 5 6 5 3 3 3 5 6 4 3 3 3 5 4 3 5 5 6 6 7 8 9 11 11 10 9 8 7 7 8 8 9 10 11 12 12 12 12 12 11 10 8 3 4 9 14 15 17 19 19 19
16 15 14 15 19 23 24 25 26 29 30 30 29 29 27 26 26 25 23 21 21 20 19 18 17 14 11 10 8 7 7 7 5 2 2 5 4 2 3 4 5 5 4 4 4 6 7 3 2 4 4 6 7 7 7 7 8 10 10 9 9 8 8 8 9 9 9 10 11 12 12 13 12 10 9 9 4 3 5 6 11 17 18 17 18
16 16 16 18 22 26 27 25 27 30 31 31 30 29 28 27 27 25 25 25 23 22 20 17 15 14 12 10 9 9 8 7 6 4 3 3 3 3 3 4 5 4 4 4 4 6 5 2 3 5 5 6 5 6 7 7 7 8 8 8 9 9 9 7 8 8 8 8 8 9 10 11 10 7 7 8 6 4 4 4 10 13 12 15 19
15 15 17 22 26 29 28 26 27 30 30 31 30 30 30 29 28 28 27 27 24 21 20 17 15 15 12 11 10 10 8 6 6 6 6 5 5 4 4 4 5 4 5 5 4 4 2 2 5 6 6 6 5 6 7 7 8 8 8 8 8 8 8 8 7 7 8 8 8 8 8 9 8 7 9 12 8 5 4 4 8 12 13 16 20
15 14 15 18 21 26 27 26 27 29 29 31 31 32 31 30 30 29 28 27 24 22 21 18 16 14 13 12 11 10 9 7 6 6 6 5 5 5 4 4 5 5 5 5 3 2 2 3 5 5 4 5 5 7 7 6 7 8 8 8 8 8 8 8 7 6 7 7 8 8 8 8 9 9 12 14 12 11 9 4 7 12 11 14 21
16 15 15 15 16 20 25 26 26 28 30 31 32 32 32 31 31 31 29 27 25 23 21 18 17 15 14 14 11 10 9 8 7 7 6 7 7 6 5 5 4 4 4 4 3 3 4 5 5 4 4 5 6 6 7 7 7 7 8 9 8 7 7 7 7 6 6 6 7 8 8 8 8 10 11 13 14 15 13 7 9 12 9 13 20
15 14 15 14 15 19 25 27 26 28 31 32 32 32 32 32 32 31 30 28 26 24 22 19 18 17 15 14 13 11 9 8 8 7 7 8 8 7 6 6 5 5 4 4 5 6 6 5 4 5 5 5 6 6 7 7 7 7 8 9 9 7 6 7 7 6 6 6 7 8 8 8 9 10 12 13 13 14 14 11 11 12 11 13 15
14 14 15 15 18 22 26 27 27 29 32 32 32 33 33 32 33 32 31 30 27 24 23 21 19 19 17 15 14 12 10 9 8 8 8 8 7 7 6 6 5 5 5 6 7 5 4 4 5 6 6 6 6 7 8 7 7 7 8 9 9 7 6 7 7 6 7 7 7 8 8 8 10 11 12 12 12 13 14 15 13 9 10 10 9
14 13 14 16 19 24 26 27 29 31 32 32 33 34 34 33 33 33 32 31 29 26 26 24 21 20 19 17 15 12 11 10 9 9 10 7 7 8 7 6 5 5 5 4 3 2 3 5 6 7 7 7 8 9 9 8 8 7 8 9 9 8 8 8 7 7 8 7 8 8 8 9 11 11 12 12 13 13 13 15 15 11 9 8 7
15 14 14 16 19 23 27 29 30 32 32 33 34 36 36 36 34 33 32 31 29 28 27 25 23 23 21 18 15 14 14 12 9 9 9 8 8 8 7 6 6 5 4 3 3 4 6 7 7 8 8 8 9 11 11 9 9 8 8 9 9 9 10 9 7 8 8 7 7 8 8 10 11 11 12 12 12 13 13 14 15 13 11 8 7
16 15 14 16 19 23 27 30 32 34 35 35 36 37 37 37 36 34 33 32 31 29 28 26 25 25 22 19 17 16 15 12 9 9 10 10 10 9 8 8 8 7 4 4 5 5 7 8 8 8 8 9 10 11 10 9 8 8 9 10 10 10 10 9 8 8 8 8 8 8 8 9 10 10 11 12 12 13 14 15 14 14 13 10 8
15 13 13 14 17 23 27 29 32 35 36 36 37 37 36 36 36 36 34 33 32 30 29 27 26 25 23 20 19 17 15 12 10 10 12 12 10 10 10 10 10 8 6 6 6 7 9 9 8 9 9 9 10 10 10 9 9 10 10 11 11 10 10 10 9 9 9 9 8 8 8 8 9 9 9 10 11 12 13 15 15 14 14 14 13
14 13 13 14 17 24 29 31 33 35 35 35 35 35 35 36 36 36 34 33 32 31 30 27 26 25 23 21 20 19 16 14 12 12 13 12 11 12 13 12 12 10 9 9 9 10 10 9 9 9 9 9 10 11 11 11 11 12 12 11 11 10 10 11 10 10 10 9 9 9 9 9 8 7 8 9 10 12 12 13 15 15 14 14 15
14 13 13 14 17 24 29 30 32 34 33 33 34 34 35 35 36 36 34 34 33 31 30 29 26 24 23 22 21 20 17 15 15 14 14 13 13 14 15 15 13 11 11 11 12 11 10 10 10 10 10 10 11 12 12 12 13 14 13 12 12 11 11 12 11 11 10 10 10 9 10 10 9 7 8 9 10 10 11 13 14 14 15 14 15
11 12 13 13 15 20 26 28 29 31 31 32 33 34 34 35 35 35 35 35 34 33 31 30 27 25 23 23 22 20 18 16 15 16 15 15 15 16 16 16 15 13 13 13 14 13 11 11 12 12 12 12 12 13 12 12 13 15 14 14 13 12 12 13 12 11 11 10 10 10 11 11 9 8 9 9 10 10 11 13 14 13 15 15 15
10 12 12 11 14 20 25 27 28 30 32 33 33 33 34 35 36 35 34 35 35 34 32 30 29 26 24 24 22 20 18 16 16 17 16 16 16 17 16 16 17 16 16 16 16 14 13 13 14 14 15 14 14 14 13 13 14 14 14 14 14 14 14 15 14 13 12 11 11 11 12 12 10 10 11 11 10 10 11 13 14 13 14 16 16
11 12 12 11 14 18 20 22 26 28 30 31 32 33 34 35 35 35 35 36 35 34 33 31 29 27 25 23 22 21 18 16 17 17 17 17 17 19 19 18 18 18 18 16 14 12 12 13 14 15 17 17 15 13 14 15 15 14 14 14 15 15 16 15 14 13 13 12 12 13 13 13 12 13 14 13 12 12 13 13 14 15 15 17 19
11 12 11 10 11 13 15 19 24 27 30 31 32 32 33 35 36 34 34 36 35 34 34 32 30 28 26 24 23 21 19 17 18 19 19 19 18 18 16 12 12 15 15 13 10 9 10 11 12 14 15 15 14 11 12 13 15 14 14 15 15 15 15 14 13 14 14 14 14 15 15 14 14 15 15 15 13 13 14 15 16 17 17 19 20
12 12 11 11 11 11 14 19 24 26 28 31 31 32 33 34 35 35 35 36 35 33 34 33 31 29 27 25 24 23 20 19 20 20 20 21 20 17 12 6 7 10 10 9 9 10 10 10 11 10 9 10 11 11 12 13 14 15 14 15 15 16 15 14 14 14 14 15 15 16 17 17 16 17 17 17 15 14 15 17 17 18 19 20 22
13 13 12 12 11 11 14 18 23 26 28 31 31 32 33 33 34 35 35 35 34 34 35 33 31 29 28 27 25 22 21 20 21 21 20 19 18 15 12 8 7 8 8 9 9 9 9 10 10 9 10 12 13 13 13 14 15 15 14 14 15 16 16 15 15 15 15 15 16 18 19 19 18 18 19 19 18 17 17 18 19 20 21 22 23
11 11 12 14 13 12 12 16 21 25 27 29 30 31 32 33 35 35 36 36 34 34 35 34 32 30 29 28 25 21 21 22 22 22 20 19 17 15 14 12 10 10 10 9 8 8 10 12 12 13 15 14 13 12 12 12 13 13 14 15 15 15 15 15 15 15 15 16 17 18 19 20 20 20 20 21 22 21 20 21 22 22 22 22 23
11 11 12 14 14 13 12 14 20 24 25 26 28 29 30 32 33 32 33 36 35 36 37 35 32 31 29 27 24 22 23 23 23 22 20 19 18 16 15 15 15 14 13 11 9 10 12 14 15 16 14 12 12 13 13 12 13 13 14 14 15 15 14 14 14 14 15 16 17 18 19 20 20 20 20 21 22 23 23 24 24 24 23 23 23
10 10 11 13 15 15 15 15 18 23 26 26 26 28 30 31 32 30 31 34 37 39 39 36 32 30 28 27 25 25 26 25 25 23 21 20 18 17 15 15 15 14 13 12 12 13 13 15 16 16 13 13 14 15 14 14 13 13 13 13 15 16 16 16 16 15 16 16 17 18 19 19 19 19 20 21 22 23 24 24 25 25 24 23 23
8 9 9 11 13 15 15 15 18 24 26 27 28 29 27 24 24 25 27 34 40 40 37 36 32 26 23 25 27 27 26 28 27 24 22 21 18 17 15 14 14 14 14 15 15 15 15 15 16 16 15 15 15 15 15 16 15 14 14 14 14 16 16 17 17 17 17 17 17 18 19 19 19 20 22 23 23 24 24 24 25 25 23 21 22
5 8 9 10 11 12 13 15 19 23 25 27 26 19 16 16 16 17 20 29 36 37 35 32 24 17 18 23 25 25 24 26 26 23 22 20 18 16 15 15 15 16 17 17 17 16 16 16 15 15 14 14 15 16 17 18 17 15 14 14 14 15 16 17 19 18 18 18 17 18 18 19 20 22 24 25 24 24 24 24 24 24 23 22 24
4 6 10 10 9 10 12 16 21 25 26 26 22 23 25 25 28 29 29 30 30 28 25 19 12 8 19 23 23 24 24 23 24 23 21 19 17 17 17 17 17 18 18 18 18 17 16 17 16 15 15 15 16 17 17 16 17 16 14 13 13 15 16 18 20 21 20 19 18 18 18 18 21 23 24 24 23 23 23 22 22 23 24 26 27
5 5 7 10 11 10 13 18 23 23 22 23 25 29 33 36 39 40 39 34 28 23 20 14 6 11 21 25 26 26 25 25 25 23 21 19 19 18 18 18 19 19 19 18 18 16 16 16 17 16 16 16 16 16 15 14 14 15 14 13 13 14 16 19 21 22 22 22 20 18 19 20 22 22 21 21 21 21 21 22 23 24 26 28 27
6 7 8 8 9 11 14 16 16 18 25 29 31 34 35 34 34 32 28 25 23 21 18 12 13 20 25 28 29 28 27 27 26 24 22 21 20 19 20 20 20 19 19 17 16 15 15 15 16 16 16 16 14 14 15 14 13 13 13 13 13 14 16 18 21 21 22 22 20 19 20 21 22 21 19 19 19 19 20 22 24 26 28 28 26
7 9 10 7 9 15 14 11 19 24 27 29 30 31 30 28 28 26 22 20 20 18 13 13 22 26 28 30 29 28 28 28 26 24 23 22 21 21 21 21 21 19 18 17 16 16 16 16 17 17 16 13 10 11 12 12 13 16 16 14 12 13 15 18 19 19 19 20 20 20 20 20 20 19 18 17 17 18 20 22 25 27 27 28 27
4 6 6 6 6 7 13 24 29 29 29 29 31 33 33 31 30 29 26 22 20 21 23 25 27 28 29 30 28 28 28 27 25 25 23 23 22 22 21 21 21 19 18 17 16 16 17 18 18 16 12 9 10 12 13 13 14 15 14 12 10 13 16 18 18 17 18 19 20 21 20 20 19 17 16 16 16 17 19 22 24 25 25 27 28
3 6 10 17 20 23 27 27 24 21 19 21 25 29 33 34 33 32 29 26 26 29 31 29 27 28 29 30 29 29 29 28 27 27 26 25 24 22 20 19 19 18 15 13 13 16 17 15 11 9 8 9 12 15 17 18 15 10 8 9 12 15 16 15 15 15 16 18 19 19 19 18 16 16 16 16 16 17 19 20 20 21 22 25 27
12 19 25 31 36 35 30 25 23 23 20 17 17 19 20 20 23 23 23 25 29 32 32 30 28 29 30 30 30 30 29 30 30 29 28 27 25 22 19 18 16 14 10 9 10 12 12 9 7 8 9 11 14 15 17 16 12 7 7 11 12 13 12 12 12 14 15 16 18 18 17 15 14 14 15 15 16 16 16 15 16 18 20 23 26
18 27 30 33 35 32 27 26 27 27 25 22 21 22 19 16 18 22 22 25 29 32 31 29 29 31 32 31 31 31 31 32 31 31 29 28 25 21 17 15 12 9 6 7 8 8 6 6 8 11 13 14 15 15 14 11 8 6 8 9 8 7 8 10 11 13 15 17 18 16 15 14 14 14 14 15 15 13 12 14 16 16 18 22 26
24 29 29 29 30 30 29 29 30 31 30 27 26 26 25 24 25 26 27 29 29 28 26 27 29 31 31 31 31 32 33 33 31 30 28 26 22 18 14 10 7 4 4 7 10 9 7 7 10 12 14 14 13 12 10 7 5 5 6 6 5 5 6 10 13 15 16 17 17 15 14 14 14 14 16 15 12 9 10 15 17 17 18 19 21
25 29 29 28 26 27 28 28 29 31 32 31 29 26 26 26 23 21 23 23 21 22 25 29 31 30 29 29 30 30 31 31 28 27 25 21 17 14 11 7 4 3 7 10 11 10 8 8 9 11 12 12 10 10 8 5 4 4 4 5 6 7 9 12 14 15 16 16 16 15 13 13 14 15 15 13 9 8 11 15 18 18 18 18 17
19 21 26 27 23 22 25 26 28 30 30 31 29 25 22 19 16 16 18 18 21 26 30 30 29 27 26 26 25 25 26 25 23 22 20 16 12 9 7 4 2 9 13 13 9 8 7 8 8 8 8 8 7 8 6 4 4 5 5 6 8 9 10 11 12 14 14 14 13 13 12 13 15 14 12 9 7 8 12 16 18 19 18 18 18
16 17 22 26 23 21 23 26 28 30 31 30 27 22 18 15 13 14 17 18 20 21 20 19 17 15 15 15 16 16 17 18 18 17 15 13 10 7 3 3 9 14 15 12 9 8 7 5 5 5 5 5 5 5 5 5 5 5 5 8 10 9 9 9 10 11 12 11 11 11 12 13 13 10 8 7 6 8 13 17 19 21 21 21 21
13 15 20 25 26 25 24 25 27 30 31 30 24 18 16 16 16 16 16 17 16 14 14 13 11 10 11 12 14 15 16 16 16 14 13 11 9 4 2 8 10 11 13 12 11 9 5 3 3 3 3 4 4 4 5 6 6 6 7 9 10 8 7 7 8 8 9 10 11 11 10 9 8 6 7 7 8 10 14 16 19 23 24 23 23
12 13 16 20 24 24 23 22 23 24 24 24 21 18 19 17 14 12 11 11 10 10 12 12 9 10 13 15 17 19 18 16 14 13 12 9 5 1 5 6 7 9 10 10 8 6 5 3 3 3 2 3 4 5 6 6 6 6 8 9 8 8 7 6 6 6 7 9 9 8 7 7 7 7 8 8 8 10 13 15 18 23 25 25 25
14 16 18 19 20 21 20 20 19 19 20 21 19 18 16 13 12 10 9 8 7 8 12 13 13 14 16 19 20 18 14 13 12 12 9 5 3 4 5 6 7 7 6 4 2 3 4 4 4 5 4 4 6 7 6 6 7 7 8 8 8 8 8 8 8 8 9 9 9 8 7 7 7 8 9 8 8 10 14 16 18 21 23 25 25
14 17 18 18 19 19 21 21 20 18 18 18 16 12 11 13 14 10 8 9 8 7 10 13 14 16 16 16 15 13 12 13 12 9 5 3 2 3 5 9 9 7 6 4 3 4 4 3 5 6 5 5 7 7 6 6 8 8 7 6 7 9 10 10 10 10 10 10 10 8 7 8 9 11 12 12 13 15 16 18 20 20 22 24 25
15 17 19 18 18 17 18 18 16 12 9 8 6 5 8 13 14 10 9 11 11 10 11 11 11 11 11 10 11 13 15 14 9 7 7 8 7 8 9 10 8 6 4 4 4 5 5 4 6 7 6 6 7 6 6 7 7 7 5 4 6 8 9 10 11 10 9 9 9 8 9 10 10 12 14 15 16 18 17 19 21 20 22 25 26
15 19 21 22 20 18 17 16 14 12 12 12 13 12 10 10 10 9 10 13 13 12 11 10 10 9 9 10 12 14 14 13 11 12 13 11 9 9 8 8 6 4 3 2 2 4 4 5 6 6 5 5 4 5 5 5 4 3 2 4 6 7 9 9 9 8 8 8 8 8 10 11 10 11 14 15 16 17 18 20 21 20 21 25 26
14 15 16 17 17 17 19 19 17 17 18 16 15 14 8 6 8 11 14 14 13 14 11 8 9 12 15 17 16 15 16 18 17 16 15 13 12 11 8 7 7 5 4 3 2 2 3 3 4 4 3 2 2 2 1 2 2 3 4 6 7 8 9 8 7 6 7 8 9 9 9 10 9 10 12 13 14 15 16 18 20 20 21 24 26
Wind_Direction
155 151 155 156 156 163 167 162 159 161 167 170 170 175 176 178 179 178 185 190 187 186 192 198 200 203 203 206 220 229 239 244 241 251 254 248 249 255 266 273 284 291 294 301 303 305 309 306 305 308 305 302 305 308 312 312 309 305 298 295 298 298 300 304 307 304 294 293 302 307 309 309 310 308 298 283 272 265 263 262 260 260 259 256 256
154 154 159 160 159 166 169 166 165 166 168 171 172 175 178 180 178 176 183 187 187 187 192 199 204 207 205 208 222 234 239 237 231 237 234 220 213 224 242 251 279 317 305 292 295 299 298 299 298 294 291 294 300 301 300 300 298 298 296 293 293 291 294 303 309 303 282 286 310 314 311 316 319 311 306 301 293 282 272 264 259 258 258 256 254
160 160 160 164 167 169 169 169 172 171 168 171 173 174 177 181 181 179 180 182 185 190 196 204 209 211 209 207 222 235 237 241 234 219 208 213 212 222 229 228 273 313 299 288 295 296 289 290 290 283 285 293 297 300 299 298 296 291 285 281 284 286 285 292 301 296 283 294 315 316 314 329 323 321 329 322 315 305 289 273 262 260 261 259 258
166 169 167 172 177 173 170 171 173 172 169 172 175 176 178 181 181 181 182 185 189 194 201 207 210 213 207 202 227 240 228 213 195 150 118 152 153 163 209 236 273 280 316 331 335 342 338 330 315 301 306 309 304 310 307 305 313 307 293 284 280 283 284 288 292 288 291 302 312 301 320 325 297 335 344 326 323 325 304 283 271 273 278 276 270
168 174 174 177 180 175 171 172 171 170 172 175 178 179 180 183 183 183 184 189 193 197 200 199 196 196 194 198 219 222 205 188 170 131 101 114 110 89 81 91 156 59 16 355 344 355 6 8 2 350 345 337 325 331 326 328 346 344 324 311 295 289 291 294 296 295 296 293 275 271 302 285 267 342 342 322 322 326 317 306 298 297 298 294 285
168 175 177 178 179 175 173 175 173 172 177 179 180 181 182 184 186 186 187 189 192 193 194 188 186 189 192 201 211 193 180 186 181 168 258 292 296 312 18 79 62 24 15 345 322 332 353 356 4 8 0 1 360 355 350 350 0 1 352 343 330 314 305 301 306 315 318 302 282 275 276 269 276 313 331 316 314 316 318 315 308 311 312 303 292
170 175 178 178 179 175 176 181 179 177 180 182 182 183 184 184 185 187 188 189 189 189 190 187 186 191 193 198 195 172 159 166 177 248 274 275 270 264 281 278 297 320 330 329 309 331 18 353 355 18 16 10 13 12 6 2 2 0 359 1 356 341 323 309 311 322 328 320 311 304 297 292 292 296 291 286 313 314 317 315 312 320 322 310 296
170 177 179 178 180 179 181 187 183 180 181 182 181 183 185 186 186 187 188 189 187 185 187 188 186 187 187 188 177 166 164 155 149 231 249 235 220 228 269 272 290 306 312 319 301 322 342 320 340 25 25 6 6 16 13 6 4 2 2 3 356 344 334 321 314 318 321 320 323 327 325 319 310 298 284 279 286 303 311 314 316 322 321 315 306
170 175 179 177 178 180 186 189 184 180 181 181 181 182 184 185 184 186 187 186 184 182 183 183 182 182 182 183 176 171 172 158 148 151 192 191 195 248 281 274 292 303 300 304 308 325 328 302 331 7 0 356 5 12 7 3 7 8 7 3 357 348 340 330 324 327 327 326 329 331 333 334 330 320 300 287 271 270 296 309 315 318 318 315 311
172 173 176 179 178 181 189 190 181 180 181 181 181 181 181 181 181 182 184 182 180 181 182 178 179 183 183 183 182 178 177 180 197 229 243 228 243 273 274 268 278 285 295 304 308 321 320 276 333 350 341 342 357 356 353 0 2 2 5 3 359 353 349 347 347 348 346 344 348 343 338 339 337 331 325 317 297 264 261 282 302 310 312 309 307
174 173 175 179 179 181 186 186 181 180 182 181 179 178 176 177 178 177 178 179 177 178 180 179 180 183 181 179 181 178 176 185 202 216 232 237 239 242 243 257 270 281 305 309 301 320 331 311 334 340 328 328 333 336 347 2 358 356 2 2 359 357 354 355 355 358 357 355 3 1 347 343 337 326 326 325 315 282 278 286 294 299 299 300 303
173 173 175 177 177 178 180 181 180 178 177 176 175 174 174 176 177 174 174 178 179 178 180 181 180 178 178 179 181 183 182 186 192 195 203 208 208 208 223 265 277 278 295 298 288 315 342 332 329 318 308 319 321 325 336 347 348 352 357 353 352 350 346 347 351 359 360 355 1 2 356 352 343 336 333 328 322 311 306 294 297 305 300 296 303
173 174 176 174 173 175 176 177 176 173 172 171 171 172 174 176 177 175 176 180 181 181 182 182 180 178 181 184 188 193 193 194 195 198 206 211 212 214 228 254 265 258 277 297 292 287 299 310 315 296 294 309 310 314 324 333 340 343 342 340 341 342 335 333 342 354 358 351 348 348 353 358 351 345 340 332 328 322 316 306 304 308 298 294 304
175 174 174 174 174 173 174 175 174 171 171 171 170 172 175 176 177 177 179 181 182 183 183 183 183 183 184 186 189 195 198 197 197 201 203 202 207 212 218 229 246 258 268 289 291 289 295 301 302 293 292 299 302 304 310 319 325 325 328 331 334 339 328 320 330 340 345 345 340 339 344 349 347 346 344 338 334 328 321 317 314 311 302 296 301
174 173 173 175 174 172 173 174 174 173 173 173 173 175 176 177 179 179 179 181 183 183 184 183 183 186 187 187 193 198 199 198 198 203 202 201 208 212 214 227 241 242 247 272 287 292 294 292 295 300 300 297 293 294 298 302 305 311 317 320 324 328 311 305 315 320 324 331 331 330 333 336 339 344 346 340 336 333 328 326 324 319 311 307 303
174 172 172 175 174 173 174 175 175 175 175 174 175 176 178 179 181 182 182 183 182 183 186 185 182 185 188 189 194 198 199 200 201 208 217 220 213 213 222 235 241 240 244 264 284 277 274 288 298 301 300 297 293 294 296 292 291 299 308 311 315 313 299 293 294 301 312 323 328 327 325 328 335 341 341 338 336 335 334 332 328 321 315 315 313
176 175 171 175 175 174 176 176 176 177 177 177 178 179 180 180 181 182 182 183 183 184 187 187 185 186 187 189 194 197 197 198 204 215 223 214 202 215 233 233 233 235 235 251 269 270 277 292 302 303 301 300 298 299 297 290 286 291 299 306 308 305 300 292 285 294 310 316 315 318 319 321 327 332 336 339 340 338 337 335 331 324 317 311 310
175 177 171 174 177 177 179 179 180 180 180 180 180 182 182 182 183 183 182 183 184 186 188 188 186 185 185 187 190 194 197 201 212 218 216 207 207 226 239 232 229 229 236 262 266 267 278 286 290 295 298 299 301 303 300 294 291 292 296 301 302 299 297 295 291 293 304 307 302 304 308 311 314 322 332 337 340 343 343 339 335 330 323 313 305
172 175 172 176 178 178 179 180 182 183 183 182 181 181 182 182 184 184 185 185 186 188 189 189 188 186 186 189 190 191 196 201 207 210 210 209 216 234 239 234 233 235 246 251 246 260 277 281 283 290 293 295 300 304 305 302 295 292 293 295 296 292 289 289 288 289 291 289 288 293 295 296 303 314 325 332 339 345 345 341 337 334 330 322 311
174 177 177 178 179 181 180 180 182 183 183 182 180 179 181 182 183 185 185 185 187 190 191 189 188 185 185 189 191 191 193 197 202 209 212 213 220 230 233 233 236 240 243 243 252 271 280 281 285 292 295 295 293 292 295 297 293 291 293 292 289 287 286 281 277 279 279 275 280 287 287 292 300 305 313 325 337 342 340 338 337 334 334 329 315
176 176 178 179 180 184 182 181 181 181 181 180 180 180 180 181 183 184 184 184 187 191 191 188 186 185 186 190 191 191 192 195 200 207 212 216 224 230 232 236 240 241 239 244 259 272 277 276 279 285 289 289 288 285 285 286 286 289 290 286 283 282 283 279 275 278 273 270 281 284 280 291 299 291 297 315 328 334 334 332 335 336 333 329 316
178 175 177 178 179 182 182 181 180 179 180 181 181 180 180 181 183 183 183 184 187 190 190 188 187 187 189 189 188 188 188 191 200 208 214 220 228 234 236 239 242 244 244 249 259 265 270 270 272 279 281 280 284 285 281 274 275 284 286 282 280 278 277 277 277 279 276 272 277 277 278 289 291 280 285 303 316 320 321 322 330 335 326 322 317
176 177 177 178 182 182 180 179 179 180 183 183 181 180 181 183 183 183 183 184 188 189 188 188 187 187 188 187 189 191 190 195 205 211 216 221 229 238 241 243 244 244 245 250 255 257 260 263 266 274 277 277 282 282 278 269 268 279 286 283 280 275 275 279 278 277 277 274 271 269 274 281 276 269 275 290 305 306 304 309 319 326 318 314 316
180 185 187 182 183 182 179 179 180 182 184 183 182 182 182 183 184 184 183 184 187 188 186 185 186 188 188 187 191 195 193 197 206 212 217 222 232 243 246 247 246 243 244 249 253 253 259 265 269 276 279 276 275 276 276 270 266 276 287 286 283 277 275 279 279 276 275 274 273 269 269 274 270 264 267 279 292 292 293 299 307 313 311 309 312
188 193 194 186 181 183 183 183 184 185 187 186 185 184 183 185 185 184 183 185 187 186 183 183 185 187 186 188 193 195 192 197 207 213 218 223 231 239 244 244 233 231 237 242 247 255 265 272 277 285 287 278 271 275 283 277 270 275 284 287 286 283 279 277 277 276 274 273 274 272 271 271 267 262 262 270 281 285 288 293 299 304 307 306 307
191 198 200 194 189 187 187 187 187 187 188 188 187 187 187 186 185 184 185 185 185 184 182 182 184 184 185 190 195 194 193 199 208 214 220 226 230 233 240 239 203 203 221 235 250 261 268 277 283 290 297 290 287 290 292 288 280 277 283 287 289 288 285 279 277 278 278 276 275 276 277 273 265 262 261 263 271 280 284 289 295 302 305 304 302
187 192 199 200 194 191 191 191 190 189 189 190 189 188 188 186 183 183 185 184 182 181 180 181 183 183 186 193 196 196 198 204 211 216 220 225 229 232 240 245 224 218 239 258 266 268 276 286 286 289 297 298 298 295 290 288 283 279 281 285 289 291 287 282 282 285 285 282 281 282 282 276 269 266 263 261 267 274 281 289 296 301 304 302 299
185 185 192 198 199 198 193 190 191 192 191 190 189 189 189 186 183 182 182 182 181 179 177 180 183 184 190 195 196 198 202 208 214 217 219 223 228 231 235 241 247 256 269 278 278 277 285 288 286 289 293 292 292 291 286 285 284 281 280 283 287 289 287 285 287 291 292 289 288 289 287 280 274 271 267 265 269 272 278 289 296 300 301 298 297
192 187 185 192 197 195 191 192 194 194 192 190 190 191 192 187 183 181 180 179 178 175 176 179 181 185 192 196 197 200 205 209 213 216 219 222 224 225 232 244 255 264 273 281 283 283 283 281 282 286 284 282 291 295 287 283 284 281 278 280 284 284 281 283 286 292 297 297 296 297 296 289 281 275 273 273 275 276 279 286 294 298 298 296 297
200 202 193 191 193 193 192 191 192 194 194 191 189 192 193 188 183 183 180 176 175 174 175 178 179 185 193 197 199 202 206 209 211 213 217 219 221 225 234 245 253 260 267 270 274 279 278 277 280 280 275 280 291 291 282 280 282 280 274 271 274 276 274 275 280 285 290 295 299 300 303 301 293 284 282 281 280 280 281 285 292 295 293 292 295
205 212 207 198 196 196 193 190 194 197 193 191 194 196 191 183 179 180 176 171 171 172 174 175 175 182 193 196 198 202 206 209 211 211 214 218 221 227 232 240 247 254 259 260 265 271 273 275 276 275 276 280 284 284 283 284 284 282 275 268 269 272 271 272 275 277 281 288 292 297 303 305 298 291 289 287 284 282 282 285 290 292 289 289 295
211 210 216 217 208 196 194 194 198 197 192 193 194 177 145 133 143 157 162 165 167 167 168 167 162 173 194 195 194 198 202 205 206 208 213 216 219 222 228 235 244 251 255 256 259 264 268 271 270 271 277 280 282 286 288 289 290 288 283 277 274 273 272 273 273 274 279 282 285 293 302 302 298 297 294 292 292 292 291 289 289 291 289 290 297
245 216 211 217 219 207 201 199 200 199 195 190 171 138 133 146 156 161 163 163 161 156 152 143 128 176 210 207 200 200 202 204 207 210 212 215 219 224 231 239 245 250 253 254 256 260 265 268 265 265 274 280 283 287 290 294 296 293 288 284 282 280 278 279 279 280 281 279 280 290 298 299 305 308 303 299 300 302 302 297 290 290 290 292 301
261 245 216 213 220 220 210 204 203 195 178 166 155 151 158 165 164 163 162 156 150 139 129 126 147 226 226 217 208 206 208 211 213 214 215 217 221 228 235 241 245 247 251 254 256 259 266 268 265 265 273 279 284 289 292 295 295 288 283 283 286 286 284 284 284 284 281 277 279 287 291 297 310 316 312 309 309 309 308 304 297 294 293 296 303
239 250 243 220 209 217 218 208 188 157 145 150 156 157 157 156 152 149 144 138 134 125 119 144 214 234 227 214 208 208 210 213 215 215 214 216 222 230 236 240 244 247 251 254 255 260 269 273 272 272 272 275 284 292 292 292 294 289 280 280 285 287 289 290 289 288 283 277 279 284 286 296 311 316 314 314 315 314 310 304 300 297 296 300 303
236 238 240 230 213 214 204 152 119 122 136 148 148 142 135 128 126 126 121 120 126 131 144 198 223 225 217 209 206 207 209 212 213 211 213 218 221 228 234 239 243 245 249 253 256 262 269 272 275 276 273 273 288 300 298 299 306 301 284 274 278 286 293 296 295 293 286 279 279 281 283 296 310 312 313 315 313 310 308 302 298 297 299 301 300
218 208 232 280 263 202 134 113 119 133 145 144 137 132 129 127 131 139 142 143 154 173 194 212 222 221 215 208 206 208 210 212 212 210 214 219 220 225 232 237 241 243 248 257 265 269 268 269 274 275 272 277 288 293 293 295 302 300 282 270 282 295 298 298 296 292 285 281 280 279 284 298 305 307 313 316 309 306 306 302 301 302 304 303 303
86 74 46 43 59 81 94 106 116 115 112 112 116 128 137 139 142 148 153 162 181 195 204 214 223 222 215 208 208 211 213 214 215 214 216 218 219 222 227 231 237 243 251 265 276 274 268 269 275 274 273 285 292 295 298 296 293 289 281 289 302 302 300 301 301 296 289 285 282 283 291 299 300 305 314 312 307 309 309 307 310 313 310 307 308
78 76 76 82 92 100 107 114 109 98 96 101 108 118 124 126 134 148 166 181 192 201 208 217 225 222 214 209 210 213 216 217 217 216 216 217 217 217 224 232 238 243 254 277 285 276 268 271 284 286 290 300 306 311 311 304 292 285 297 307 306 301 304 311 309 301 296 292 289 293 299 299 299 307 311 306 309 315 315 319 327 323 313 310 313
81 87 94 102 109 115 120 123 125 131 141 151 151 139 127 132 154 173 193 202 202 206 214 221 224 219 212 210 212 213 216 218 217 215 216 217 216 216 220 225 227 232 254 282 287 285 287 298 300 299 304 310 318 323 321 307 296 302 311 315 313 309 312 312 305 300 300 299 300 304 305 301 302 309 309 309 316 319 319 329 336 329 316 313 317
95 100 102 105 114 125 133 139 145 147 152 162 166 157 157 172 185 192 203 211 212 217 223 224 219 213 208 211 214 215 216 217 217 217 216 214 211 209 205 201 203 224 276 288 288 293 305 311 306 307 311 314 319 326 322 303 296 311 314 310 312 316 312 306 303 303 305 307 310 311 307 302 305 312 314 317 319 316 321 335 341 335 325 322 325
103 110 112 115 122 130 137 143 147 149 158 169 172 170 176 187 194 200 208 216 223 227 226 218 211 208 208 211 214 215 217 217 214 211 206 198 194 195 194 189 190 271 286 281 283 293 307 311 307 310 317 320 319 319 315 296 281 295 297 294 303 314 317 314 312 311 313 315 315 313 308 303 307 314 320 322 315 310 326 340 345 342 339 340 342
106 116 123 128 131 133 137 142 146 152 163 169 169 173 182 187 195 205 208 209 211 214 215 214 210 209 212 215 216 216 214 209 202 194 186 177 173 174 173 158 353 312 290 276 278 295 304 304 307 314 325 327 319 314 312 291 266 275 287 298 312 321 322 317 315 316 319 322 323 321 313 307 308 316 324 325 313 313 332 345 350 353 354 356 358
124 131 134 132 133 138 143 146 151 159 165 167 170 179 186 179 169 169 169 170 176 184 190 194 194 195 202 206 204 199 193 186 179 172 163 151 141 139 138 347 326 303 281 271 285 296 285 285 302 315 331 340 329 313 298 272 261 273 294 307 316 322 318 311 310 316 326 333 333 325 316 316 321 327 333 336 331 333 342 350 358 4 6 5 6
126 137 139 133 134 140 143 147 158 167 171 174 177 174 163 152 143 141 142 142 142 145 146 146 148 153 161 166 167 165 163 162 160 157 150 137 127 126 300 308 300 277 262 266 280 275 249 239 272 287 323 343 327 293 270 261 267 287 303 311 318 322 325 324 319 320 330 333 326 318 320 337 355 2 2 6 1 351 349 351 1 10 12 10 8
115 131 136 131 132 138 141 147 160 168 170 174 173 153 138 135 137 141 145 142 140 139 130 124 134 155 162 163 161 157 154 154 151 147 145 145 148 225 293 289 270 259 258 263 264 241 210 211 232 235 264 298 273 256 256 266 286 305 311 314 321 330 340 345 341 339 339 335 332 340 1 26 37 22 10 11 6 355 354 356 4 11 12 11 9
122 130 133 129 128 133 136 140 149 147 139 140 142 136 131 138 147 149 140 129 131 139 135 138 155 166 164 164 163 159 154 152 152 154 160 180 241 286 285 257 241 236 228 219 199 181 190 207 219 223 230 237 236 239 254 282 305 318 318 321 334 344 349 355 358 360 360 3 14 29 36 40 32 11 8 15 12 5 6 8 10 12 10 9 9
124 126 130 130 128 131 134 137 140 136 128 129 136 138 141 147 149 145 134 131 141 156 155 156 164 167 166 164 167 173 174 167 161 164 176 194 206 213 212 209 207 200 189 180 167 169 179 195 211 217 217 212 221 238 267 297 311 316 318 330 349 355 358 6 7 3 7 24 41 42 27 23 21 12 14 22 17 11 11 12 13 13 8 7 9
121 126 131 129 125 127 129 131 134 134 127 125 129 140 154 150 142 135 140 147 153 159 162 160 162 167 172 168 162 165 166 164 163 162 159 160 165 174 184 189 191 196 199 203 205 203 208 219 218 214 207 201 213 248 289 306 311 314 321 349 10 9 9 13 9 7 17 36 45 40 30 33 32 19 16 17 12 7 6 6 9 12 9 8 10
131 136 140 139 137 132 124 121 127 120 100 85 77 77 98 126 133 141 153 155 155 157 160 165 167 169 171 164 158 160 165 170 176 171 162 158 161 168 175 179 180 182 177 178 206 216 217 221 218 213 211 217 240 281 301 309 317 327 21 59 56 38 25 18 12 20 38 42 40 44 44 42 35 23 19 17 13 9 5 2 5 10 11 10 11
141 139 137 138 138 131 121 122 128 120 109 101 85 73 86 136 162 170 167 162 163 165 165 166 170 175 176 171 168 173 178 178 179 178 171 161 153 151 153 155 151 139 123 123 135 148 165 197 219 228 242 269 296 318 339 359 19 73 92 82 69 55 43 33 27 38 55 51 44 48 48 40 35 30 23 19 18 16 11 6 5 8 10 10 10